20050116,000009,1038988,34.272993,-120.024428,25.3,15.779,32.728,41.140,1161.62,0.0,5.389,10.939,15.289, NaN,24.050,   NaN,15.49,1022.89,81.01,15.96,78.6,81.0,3.9,2.2,287.6,288.2,4.2,2.5,NaN, NaN,19.3,88.5,3.0,1105833609,1105833609,1,0.7,000009,000009,204.1,34.273127,-120.024353,-0.45,NaN,NaN,15.783, NaN,NaN,NaN, NaN, NaN
20050116,000040,1039019,34.273073,-120.024342,25.3,15.803,32.775,41.215,1196.59,0.0,5.352,2.282,15.222, NaN,24.081,   NaN,15.55,1022.92,81.08,15.99,88.2,98.6,3.8,1.9,288.9,291.6,4.2,2.1,NaN, NaN,11.3,71.2,44.1,1105833640,1105833640,1,0.8,000039,000040,197.4,34.273213,-120.024263,-0.22,NaN,NaN,15.807, NaN,NaN,NaN, NaN, NaN
20050116,000110,1039049,34.273132,-120.024248,25.3,15.781,32.811,41.235,1184.04,0.0,5.389,0.974,15.180, NaN,24.113,   NaN,15.69,1022.91,81.31,16.06,96.7,124.2,3.6,1.6,289.7,296.9,4.0,1.8,NaN, NaN,19.0,75.7,55.2,1105833670,1105833670,1,0.7,000069,000070,192.7,34.273290,-120.024200,-0.42,NaN,NaN,15.785, NaN,NaN,NaN, NaN, NaN
20050116,000140,1039079,34.273198,-120.024168,25.2,15.754,32.821,41.221,1128.72,0.0,5.389,1.446,15.164, NaN,24.127,   NaN,15.79,1022.91,81.34,16.14,100.0,117.2,3.8,1.6,289.0,295.2,4.2,1.8,NaN, NaN,16.9,86.4,28.5,1105833700,1105833700,1,0.4,000099,000100,190.2,34.273342,-120.024122,-0.50,NaN,NaN,15.758, NaN,NaN,NaN, NaN, NaN
20050116,000210,1039108,34.273205,-120.024082,25.4,15.725,32.832,41.206,1084.44,0.0,5.465,0.190,15.161, NaN,24.142,   NaN,15.82,1022.93,81.27,16.13,95.9,104.6,3.9,1.7,285.6,290.1,4.2,2.0,NaN, NaN,16.9,96.2,103.4,1105833730,1105833730,1,0.6,000129,000130,192.9,34.273338,-120.024032,-0.46,NaN,NaN,15.729, NaN,NaN,NaN, NaN, NaN
20050116,000240,1039138,34.273160,-120.024017,25.4,15.631,32.878,41.171,1034.88,0.0,5.522,1.451,15.155, NaN,24.198,   NaN,15.80,1022.92,81.22,16.12,90.2,83.8,3.8,1.7,283.6,275.7,4.1,1.9,NaN, NaN,16.2,96.2,146.3,1105833760,1105833760,1,0.6,000159,000160,199.4,34.273288,-120.023955,-0.48,NaN,NaN,15.635, NaN,NaN,NaN, NaN, NaN
20050116,000310,1039168,34.273090,-120.023973,25.3,15.591,32.844,41.094,975.26,0.0,5.691,1.018,15.153, NaN,24.181,   NaN,15.71,1022.93,81.18,16.06,82.6,71.7,4.1,1.8,282.8,275.0,4.4,1.9,NaN, NaN,16.8,150.8,160.3,1105833790,1105833790,1,0.8,000189,000190,208.7,34.273205,-120.023887,-0.44,NaN,NaN,15.595, NaN,NaN,NaN, NaN, NaN
20050116,000340,1039199,34.273013,-120.023947,25.3,15.561,32.835,41.057,915.67,0.0,5.635,8.128,15.163, NaN,24.181,   NaN,15.58,1022.93,81.19,15.98,72.4,78.8,4.2,2.2,282.8,291.9,4.4,2.4,NaN, NaN,17.3,142.6,180.0,1105833820,1105833820,1,0.4,000219,000220,215.5,34.273118,-120.023857,-0.34,NaN,NaN,15.565, NaN,NaN,NaN, NaN, NaN
20050116,000410,1039229,34.272965,-120.023935,25.1,15.693,32.725,41.056,869.06,0.0,5.559,0.467,15.183, NaN,24.067,   NaN,15.44,1022.91,81.00,15.90,67.4,73.1,4.2,2.5,285.3,292.7,4.4,2.8,NaN, NaN,17.4,140.4,137.4,1105833850,1105833850,1,0.5,000249,000250,220.2,34.273053,-120.023830,-0.38,NaN,NaN,15.697, NaN,NaN,NaN, NaN, NaN
20050116,000440,1039258,34.272925,-120.023905,25.2,15.792,32.744,41.170,843.23,0.0,5.446,6.301,15.210, NaN,24.059,   NaN,15.39,1022.89,80.94,15.86,64.5,68.6,4.4,2.8,285.6,290.3,4.6,2.9,NaN, NaN,17.9,140.4,151.4,1105833880,1105833880,1,0.0,000279,000280,221.6,34.273010,-120.023805,-0.36,NaN,NaN,15.796, NaN,NaN,NaN, NaN, NaN
20050116,000509,1039288,34.272898,-120.023883,25.3,15.823,32.769,41.226,879.06,0.0,5.446,1.374,15.257, NaN,24.072,   NaN,15.32,1022.90,80.46,15.77,63.1,68.1,4.6,2.7,284.7,290.0,4.7,2.8,NaN, NaN,17.6,140.4,177.6,1105833910,1105833909,1,0.0,000309,000309,218.2,34.272995,-120.023788,-0.49,NaN,NaN,15.827, NaN,NaN,NaN, NaN, NaN
20050116,000540,1039318,34.272870,-120.023848,25.3,15.861,32.775,41.269,979.83,0.0,5.597,0.428,15.309, NaN,24.068,   NaN,15.35,1022.93,80.28,15.79,65.1,68.5,4.4,2.4,283.8,287.9,4.5,2.5,NaN, NaN,17.4,140.4,103.0,1105833940,1105833940,1,0.2,000340,000340,213.1,34.272978,-120.023758,-0.37,NaN,NaN,15.865, NaN,NaN,NaN, NaN, NaN
20050116,000609,1039347,34.272847,-120.023812,25.2,15.873,32.797,41.306,1074.24,0.0,5.559,0.590,15.345, NaN,24.082,   NaN,15.35,1022.93,79.87,15.81,69.7,68.6,4.2,2.3,283.5,283.6,4.3,2.4,NaN, NaN,17.6,140.4,87.9,1105833970,1105833969,1,0.2,000369,000369,207.4,34.272963,-120.023743,-0.27,NaN,NaN,15.877, NaN,NaN,NaN, NaN, NaN
20050116,000640,1039379,34.272822,-120.023777,25.2,15.854,32.815,41.308,1137.94,0.0,5.597,0.437,15.356, NaN,24.100,   NaN,15.42,1022.90,79.82,15.87,75.0,74.5,4.0,2.0,284.3,285.6,4.2,2.1,NaN, NaN,16.8,140.4,151.2,1105834000,1105834000,1,0.3,000399,000400,205.9,34.272942,-120.023698,-0.41,NaN,NaN,15.858, NaN,NaN,NaN, NaN, NaN
20050116,000710,1039409,34.272778,-120.023743,25.3,15.866,32.805,41.307,1175.95,0.0,5.540,0.219,15.345, NaN,24.090,   NaN,15.49,1022.92,80.08,15.94,72.8,72.0,3.7,1.6,281.0,285.4,3.8,1.8,NaN, NaN,16.7,133.0,177.3,1105834030,1105834030,1,0.2,000430,000430,205.9,34.272900,-120.023663,-0.38,NaN,NaN,15.870, NaN,NaN,NaN, NaN, NaN
20050116,000739,1039438,34.272737,-120.023713,25.3,15.854,32.815,41.308,1200.61,0.0,5.540,0.293,15.339, NaN,24.100,   NaN,15.53,1022.95,80.21,16.03,70.5,73.0,3.5,1.8,278.5,284.9,3.7,1.9,NaN, NaN,16.8,134.1,133.5,1105834060,1105834060,1,0.4,000459,000460,207.1,34.272858,-120.023627,-0.37,NaN,NaN,15.858, NaN,NaN,NaN, NaN, NaN
20050116,000810,1039468,34.272703,-120.023673,25.2,15.877,32.800,41.312,1186.71,0.0,5.767,0.047,15.336, NaN,24.084,   NaN,15.44,1022.90,79.67,15.94,70.9,78.4,4.0,2.1,279.1,288.0,4.2,2.3,NaN, NaN,16.5,123.6,272.9,1105834090,1105834090,1,0.2,000489,000490,205.7,34.272827,-120.023597,-0.33,NaN,NaN,15.881, NaN,NaN,NaN, NaN, NaN
20050116,000839,1039498,34.272667,-120.023623,25.4,15.890,32.798,41.322,1144.56,0.0,5.710,0.222,15.342, NaN,24.079,   NaN,15.34,1022.93,79.05,15.77,73.4,78.9,4.1,2.2,279.7,285.7,4.3,2.4,NaN, NaN,16.7,110.4,140.7,1105834120,1105834120,1,0.5,000519,000520,202.9,34.272788,-120.023555,-0.35,NaN,NaN,15.894, NaN,NaN,NaN, NaN, NaN
20050116,000910,1039529,34.272627,-120.023580,25.2,15.896,32.805,41.336,1108.96,0.0,5.522,0.323,15.361, NaN,24.083,   NaN,15.45,1022.94,79.27,15.85,73.8,76.8,3.7,2.0,277.7,281.1,3.9,2.2,NaN, NaN,17.1,110.4,121.3,1105834150,1105834150,1,0.5,000550,000550,203.7,34.272743,-120.023517,-0.36,NaN,NaN,15.900, NaN,NaN,NaN, NaN, NaN
20050116,000940,1039559,34.272593,-120.023535,25.3,15.883,32.821,41.341,1087.17,0.0,5.578,0.936,15.382, NaN,24.098,   NaN,15.53,1022.94,79.67,15.98,69.8,69.8,3.7,1.9,274.6,275.4,3.9,2.0,NaN, NaN,18.1,110.4,120.0,1105834180,1105834180,1,0.0,000580,000580,206.2,34.272710,-120.023467,-0.41,NaN,NaN,15.887, NaN,NaN,NaN, NaN, NaN
20050116,001010,1039589,34.272565,-120.023487,25.3,15.877,32.816,41.330,1071.41,0.0,5.710,0.321,15.403, NaN,24.096,   NaN,15.50,1022.93,79.84,15.98,67.5,71.9,3.8,2.1,274.6,279.5,4.0,2.3,NaN, NaN,18.5,110.4,129.1,1105834210,1105834210,1,0.4,000609,000610,209.1,34.272675,-120.023413,-0.35,NaN,NaN,15.881, NaN,NaN,NaN, NaN, NaN
20050116,001040,1039618,34.272540,-120.023432,25.2,15.904,32.799,41.336,1080.97,0.0,5.729,0.326,15.404, NaN,24.077,   NaN,15.44,1022.94,79.84,15.93,67.1,73.4,3.8,2.4,276.9,283.0,3.9,2.5,NaN, NaN,18.1,110.4,121.2,1105834241,1105834240,1,0.6,000640,000640,210.7,34.272655,-120.023355,-0.43,NaN,NaN,15.908, NaN,NaN,NaN, NaN, NaN
20050116,001109,1039648,34.272530,-120.023398,25.2,15.924,32.793,41.349,1077.90,0.0,5.842,0.304,15.384, NaN,24.068,   NaN,15.50,1022.94,80.37,15.95,68.0,73.3,3.8,2.3,278.8,284.4,4.0,2.5,NaN, NaN,17.1,123.1,101.2,1105834270,1105834269,1,0.2,000669,000669,207.9,34.272645,-120.023318,-0.39,NaN,NaN,15.928, NaN,NaN,NaN, NaN, NaN
20050116,001140,1039678,34.272513,-120.023357,25.4,15.937,32.805,41.374,1049.97,0.0,5.918,0.122,15.387, NaN,24.074,   NaN,15.38,1022.92,79.60,15.87,72.0,77.9,4.0,2.2,280.4,287.0,4.3,2.5,NaN, NaN,15.8,110.0,304.7,1105834300,1105834300,1,0.1,000700,000700,202.1,34.272635,-120.023285,-0.28,NaN,NaN,15.941, NaN,NaN,NaN, NaN, NaN
20050116,001210,1039709,34.272478,-120.023290,25.3,15.913,32.820,41.368,1005.20,0.0,5.824,0.241,15.396, NaN,24.091,   NaN,15.39,1022.93,79.65,15.82,77.6,87.8,4.0,2.1,280.5,290.4,4.3,2.3,NaN, NaN,17.4,115.7,113.7,1105834330,1105834330,1,0.4,000729,000730,197.1,34.272623,-120.023235,-0.39,NaN,NaN,15.917, NaN,NaN,NaN, NaN, NaN
20050116,001240,1039739,34.272458,-120.023218,25.3,15.921,32.809,41.364,969.17,0.0,5.918,0.284,15.409, NaN,24.080,   NaN,15.38,1022.93,79.10,15.80,81.2,81.5,4.3,2.0,279.3,280.7,4.5,2.2,NaN, NaN,16.8,110.9,103.0,1105834360,1105834360,1,0.7,000760,000760,195.2,34.272610,-120.023170,-0.42,NaN,NaN,15.925, NaN,NaN,NaN, NaN, NaN
20050116,001309,1039767,34.272433,-120.023170,25.6,15.912,32.818,41.366,945.57,0.0,5.880,0.123,15.396, NaN,24.090,   NaN,15.39,1022.95,78.82,15.75,81.6,82.4,4.2,1.8,278.6,280.2,4.4,2.0,NaN, NaN,16.1,112.6,131.0,1105834390,1105834390,1,0.6,000789,000790,199.1,34.272580,-120.023103,-0.42,NaN,NaN,15.916, NaN,NaN,NaN, NaN, NaN
20050116,001340,1039798,34.272390,-120.023123,25.2,15.902,32.817,41.356,933.07,0.0,5.993,0.076,15.401, NaN,24.091,   NaN,15.49,1022.93,79.26,15.87,77.2,74.7,3.9,1.7,278.2,278.4,4.3,2.0,NaN, NaN,15.2,118.7,223.9,1105834420,1105834419,1,0.4,000819,000819,204.7,34.272522,-120.023040,-0.49,NaN,NaN,15.906, NaN,NaN,NaN, NaN, NaN
20050116,001410,1039828,34.272340,-120.023070,25.2,15.924,32.800,41.357,948.62,0.0,5.842,1.004,15.420, NaN,24.073,   NaN,15.53,1022.93,79.80,15.96,73.0,69.2,4.2,2.2,279.7,279.4,4.6,2.6,NaN, NaN,15.3,126.6,178.8,1105834451,1105834451,1,0.2,000850,000851,207.9,34.272468,-120.022987,-0.37,NaN,NaN,15.928, NaN,NaN,NaN, NaN, NaN
20050116,001440,1039859,34.272300,-120.023032,25.3,15.944,32.797,41.371,1004.92,0.0,5.975,0.065,15.449, NaN,24.066,   NaN,15.41,1022.95,79.71,15.90,67.3,74.0,4.5,2.7,277.2,284.5,4.9,3.0,NaN, NaN,15.5,122.9,132.9,1105834480,1105834480,1,0.6,000880,000880,209.4,34.272430,-120.022937,-0.47,NaN,NaN,15.948, NaN,NaN,NaN, NaN, NaN
20050116,001511,1039889,34.272253,-120.022997,25.2,15.953,32.802,41.386,1064.50,0.0,5.861,0.037,15.478, NaN,24.069,   NaN,15.36,1022.92,79.89,15.85,66.2,73.7,4.8,2.8,277.6,285.4,5.2,3.2,NaN, NaN,14.7,134.7,181.7,1105834511,1105834511,1,0.3,000910,000911,210.1,34.272380,-120.022905,-0.33,NaN,NaN,15.957, NaN,NaN,NaN, NaN, NaN
20050116,001540,1039919,34.272200,-120.022955,25.2,15.962,32.806,41.399,1101.28,0.0,5.956,1.157,15.505, NaN,24.069,   NaN,15.37,1022.96,80.16,15.86,68.5,75.2,4.9,3.0,280.7,287.8,5.2,3.4,NaN, NaN,14.9,121.7,146.2,1105834540,1105834540,1,0.3,000940,000940,210.6,34.272323,-120.022863,-0.40,NaN,NaN,15.966, NaN,NaN,NaN, NaN, NaN
20050116,001610,1039948,34.272167,-120.022910,25.3,15.967,32.810,41.408,1138.31,0.0,5.880,2.651,15.521, NaN,24.071,   NaN,15.46,1022.96,80.81,15.95,68.0,72.7,4.5,2.7,280.3,285.5,4.7,2.9,NaN, NaN,15.8,139.1,124.2,1105834571,1105834570,1,0.5,000970,000970,211.1,34.272283,-120.022822,-0.46,NaN,NaN,15.971, NaN,NaN,NaN, NaN, NaN
20050116,001640,1039978,34.272142,-120.022852,25.3,15.955,32.823,41.411,1196.80,0.0,5.842,0.658,15.527, NaN,24.084,   NaN,15.43,1022.96,80.92,15.96,64.7,73.7,4.4,2.6,276.8,286.2,4.5,2.7,NaN, NaN,17.0,139.1,126.6,1105834601,1105834601,1,0.4,001000,001001,210.1,34.272257,-120.022763,-0.47,NaN,NaN,15.959, NaN,NaN,NaN, NaN, NaN
20050116,001710,1040008,34.272122,-120.022782,25.3,15.934,32.828,41.397,1243.73,0.0,5.767,0.362,15.520, NaN,24.092,   NaN,15.35,1022.97,80.67,15.87,63.5,76.6,4.8,2.8,274.2,287.8,4.9,2.9,NaN, NaN,18.0,139.1,119.9,1105834631,1105834630,1,0.4,001030,001030,205.7,34.272252,-120.022713,-0.53,NaN,NaN,15.938, NaN,NaN,NaN, NaN, NaN
20050116,001740,1040039,34.272107,-120.022713,25.2,15.921,32.828,41.385,1265.40,0.0,5.691,0.150,15.517, NaN,24.095,   NaN,15.28,1022.99,80.13,15.78,68.3,72.9,4.9,2.6,274.9,281.1,5.1,2.7,NaN, NaN,18.5,106.7,111.4,1105834661,1105834661,1,0.7,001060,001061,201.1,34.272240,-120.022645,-0.52,NaN,NaN,15.925, NaN,NaN,NaN, NaN, NaN
20050116,001810,1040069,34.272070,-120.022642,25.3,15.909,32.825,41.370,1272.55,0.0,5.842,0.182,15.520, NaN,24.096,   NaN,15.36,1022.97,80.02,15.80,76.2,76.3,4.7,2.4,278.0,278.7,4.9,2.6,NaN, NaN,17.9,128.5,132.1,1105834691,1105834691,1,0.8,001091,001091,198.9,34.272210,-120.022582,-0.55,NaN,NaN,15.913, NaN,NaN,NaN, NaN, NaN
20050116,001841,1040099,34.272012,-120.022570,25.4,15.897,32.824,41.359,1251.93,0.0,5.691,0.325,15.521, NaN,24.098,   NaN,15.43,1022.98,79.75,15.85,80.6,91.8,4.9,2.4,280.6,290.2,5.1,2.6,NaN, NaN,18.1,122.1,133.5,1105834721,1105834721,1,0.9,001121,001121,199.4,34.272153,-120.022513,-0.54,NaN,NaN,15.901, NaN,NaN,NaN, NaN, NaN
20050116,001910,1040128,34.271948,-120.022513,25.3,15.891,32.820,41.349,1196.30,0.0,5.710,0.415,15.524, NaN,24.096,   NaN,15.45,1023.00,79.76,15.89,80.6,77.3,4.7,2.0,281.7,281.8,5.0,2.2,NaN, NaN,18.0,132.3,138.1,1105834751,1105834751,1,0.6,001151,001151,201.9,34.272088,-120.022445,-0.55,NaN,NaN,15.895, NaN,NaN,NaN, NaN, NaN
20050116,001940,1040158,34.271918,-120.022462,25.2,15.887,32.819,41.343,1119.70,0.0,5.710,0.288,15.525, NaN,24.096,   NaN,15.47,1023.01,80.04,15.93,77.6,68.0,4.7,2.2,280.9,274.6,5.0,2.4,NaN, NaN,17.0,117.7,103.5,1105834781,1105834781,1,0.2,001181,001181,202.9,34.272045,-120.022382,-0.53,NaN,NaN,15.891, NaN,NaN,NaN, NaN, NaN
20050116,002010,1040188,34.271893,-120.022382,25.4,15.883,32.818,41.338,1069.70,0.0,5.654,0.117,15.523, NaN,24.096,   NaN,15.33,1023.02,79.60,15.81,77.5,67.6,4.9,2.3,281.0,273.2,5.2,2.5,NaN, NaN,16.7,113.2,106.5,1105834811,1105834811,1,0.6,001210,001211,201.7,34.272028,-120.022307,-0.53,NaN,NaN,15.887, NaN,NaN,NaN, NaN, NaN
20050116,002041,1040219,34.271877,-120.022302,25.3,15.879,32.818,41.335,1066.97,0.0,5.786,0.237,15.524, NaN,24.097,   NaN,15.38,1023.04,79.92,15.81,77.8,68.6,4.7,2.0,280.6,273.6,5.0,2.2,NaN, NaN,15.5,114.2,107.1,1105834841,1105834841,1,0.6,001240,001241,201.9,34.272003,-120.022223,-0.52,NaN,NaN,15.883, NaN,NaN,NaN, NaN, NaN
20050116,002111,1040249,34.271860,-120.022218,25.3,15.876,32.817,41.331,1114.07,0.0,5.842,0.551,15.523, NaN,24.097,   NaN,15.39,1023.04,79.87,15.85,78.0,72.0,4.7,2.0,280.5,275.8,4.9,2.3,NaN, NaN,15.3,114.2,102.6,1105834872,1105834871,1,0.5,001271,001271,201.9,34.271992,-120.022135,-0.61,NaN,NaN,15.880, NaN,NaN,NaN, NaN, NaN
20050116,002140,1040278,34.271862,-120.022132,25.1,15.877,32.815,41.329,1172.29,0.0,5.710,0.433,15.518, NaN,24.095,   NaN,15.43,1023.05,80.27,15.91,79.9,69.7,4.6,1.9,282.0,273.0,4.8,2.2,NaN, NaN,15.0,101.3,87.5,1105834901,1105834901,1,0.5,001300,001301,200.6,34.271998,-120.022040,-0.62,NaN,NaN,15.881, NaN,NaN,NaN, NaN, NaN
20050116,002211,1040310,34.271863,-120.022025,25.4,15.871,32.818,41.327,1202.69,0.0,5.748,0.237,15.513, NaN,24.098,   NaN,15.50,1023.08,80.70,15.94,82.5,81.4,4.4,1.9,283.1,282.5,4.7,2.2,NaN, NaN,14.8,106.2,79.2,1105834931,1105834931,1,0.5,001331,001331,198.6,34.271998,-120.021945,-0.53,NaN,NaN,15.875, NaN,NaN,NaN, NaN, NaN
20050116,002241,1040340,34.271867,-120.021930,25.0,15.889,32.805,41.329,1191.80,0.0,5.729,0.188,15.505, NaN,24.084,   NaN,15.58,1023.12,81.38,16.02,86.2,101.8,4.2,1.7,284.0,297.2,4.5,1.9,NaN, NaN,14.5,93.3,83.5,1105834962,1105834961,1,0.7,001361,001361,195.9,34.272002,-120.021857,-0.70,NaN,NaN,15.893, NaN,NaN,NaN, NaN, NaN
20050116,002311,1040369,34.271882,-120.021825,24.7,15.902,32.807,41.343,1165.79,0.0,5.861,0.348,15.501, NaN,24.083,   NaN,15.60,1023.08,81.61,16.05,87.4,99.9,4.5,1.7,282.7,291.9,4.8,1.8,NaN, NaN,14.8,86.4,67.5,1105834991,1105834991,1,0.4,001391,001391,194.1,34.272022,-120.021760,-0.63,NaN,NaN,15.906, NaN,NaN,NaN, NaN, NaN
20050116,002340,1040399,34.271890,-120.021707,24.3,15.902,32.814,41.352,1145.11,0.0,5.824,0.042,15.504, NaN,24.088,   NaN,15.54,1023.11,81.65,15.98,86.0,96.2,4.6,1.4,280.0,277.9,5.0,1.5,NaN, NaN,14.8,95.1,72.0,1105835021,1105835021,1,0.5,001420,001421,193.4,34.272028,-120.021642,-0.68,NaN,NaN,15.906, NaN,NaN,NaN, NaN, NaN
20050116,002411,1040429,34.271887,-120.021593,25.4,15.909,32.810,41.354,1123.25,0.0,5.729,0.983,15.506, NaN,24.084,   NaN,15.49,1023.07,81.51,15.89,89.5,93.3,4.9,1.5,282.2,278.9,5.3,1.7,NaN, NaN,14.7,104.1,99.5,1105835051,1105835051,1,1.0,001451,001451,191.9,34.272030,-120.021525,0.10,NaN,NaN,15.913, NaN,NaN,NaN, NaN, NaN
20050116,002441,1040460,34.271847,-120.021483,25.4,15.909,32.816,41.361,1090.35,0.0,5.767,0.257,15.510, NaN,24.089,   NaN,15.41,1023.04,81.16,15.80,93.5,81.2,5.4,2.2,286.1,276.4,5.8,2.5,NaN, NaN,14.7,112.0,135.5,1105835082,1105835081,1,0.7,001481,001481,195.4,34.271985,-120.021413,-0.87,NaN,NaN,15.913, NaN,NaN,NaN, NaN, NaN
20050116,002511,1040490,34.271782,-120.021380,25.4,15.914,32.812,41.360,1049.03,0.0,5.691,0.424,15.513, NaN,24.084,   NaN,15.36,1023.08,80.82,15.76,89.7,73.4,5.3,2.1,286.3,275.6,5.7,2.4,NaN, NaN,14.1,112.0,122.0,1105835111,1105835111,1,0.8,001511,001511,202.4,34.271908,-120.021292,-0.72,NaN,NaN,15.918, NaN,NaN,NaN, NaN, NaN
20050116,002540,1040518,34.271747,-120.021285,24.3,15.923,32.813,41.370,1004.84,0.0,5.805,1.163,15.518, NaN,24.083,   NaN,15.32,1023.09,80.55,15.73,82.8,79.1,5.3,2.6,285.4,282.6,5.7,2.9,NaN, NaN,14.1,112.0,112.0,1105835141,1105835141,1,0.7,001540,001541,206.6,34.271872,-120.021187,-0.72,NaN,NaN,15.927, NaN,NaN,NaN, NaN, NaN
20050116,002611,1040549,34.271727,-120.021187,25.4,15.914,32.819,41.369,964.09,0.0,5.786,0.774,15.530, NaN,24.090,   NaN,15.29,1023.13,80.58,15.76,79.0,77.4,5.3,2.8,285.1,284.0,5.6,3.1,NaN, NaN,13.9,112.0,108.2,1105835171,1105835171,1,0.4,001571,001571,204.9,34.271860,-120.021097,-0.59,NaN,NaN,15.918, NaN,NaN,NaN, NaN, NaN
20050116,002641,1040579,34.271703,-120.021098,25.0,15.924,32.813,41.370,915.41,0.0,5.710,0.555,15.539, NaN,24.083,   NaN,15.30,1023.14,80.89,15.76,76.7,73.1,4.9,2.5,281.8,279.1,5.2,2.8,NaN, NaN,14.0,112.0,112.0,1105835201,1105835201,1,0.3,001600,001601,202.2,34.271837,-120.021017,-0.63,NaN,NaN,15.928, NaN,NaN,NaN, NaN, NaN
20050116,002711,1040610,34.271672,-120.020995,25.0,15.936,32.811,41.380,859.17,0.0,5.786,0.389,15.545, NaN,24.079,   NaN,15.30,1023.10,81.28,15.79,77.3,69.7,5.0,2.5,280.4,274.1,5.3,2.7,NaN, NaN,14.2,109.8,104.2,1105835231,1105835231,1,0.5,001631,001631,201.2,34.271803,-120.020918,-0.70,NaN,NaN,15.940, NaN,NaN,NaN, NaN, NaN
20050116,002742,1040640,34.271650,-120.020888,25.0,15.926,32.820,41.382,801.64,0.0,5.899,0.198,15.547, NaN,24.088,   NaN,15.19,1023.11,81.21,15.70,80.8,75.6,5.3,2.3,282.8,278.8,5.6,2.5,NaN, NaN,14.0,107.2,107.6,1105835262,1105835262,1,1.0,001661,001662,201.7,34.271772,-120.020805,-0.67,NaN,NaN,15.930, NaN,NaN,NaN, NaN, NaN
20050116,002811,1040670,34.271628,-120.020778,25.1,15.931,32.815,41.381,745.31,0.0,5.824,0.078,15.540, NaN,24.083,   NaN,15.16,1023.10,81.32,15.64,81.1,69.2,5.4,2.2,282.8,273.0,5.7,2.4,NaN, NaN,14.7,104.8,87.1,1105835291,1105835291,1,0.3,001691,001691,200.4,34.271752,-120.020700,-0.70,NaN,NaN,15.935, NaN,NaN,NaN, NaN, NaN
20050116,002841,1040699,34.271612,-120.020662,25.0,15.933,32.816,41.383,708.17,0.0,5.842,0.150,15.534, NaN,24.083,   NaN,15.09,1023.12,81.04,15.56,82.8,71.5,5.6,2.3,283.0,275.6,6.0,2.5,NaN, NaN,14.6,104.6,98.7,1105835322,1105835322,1,0.8,001721,001722,198.1,34.271737,-120.020587,-0.64,NaN,NaN,15.937, NaN,NaN,NaN, NaN, NaN
20050116,002911,1040729,34.271595,-120.020535,25.1,15.931,32.818,41.384,691.97,0.0,5.710,0.224,15.529, NaN,24.085,   NaN,15.13,1023.10,81.08,15.54,81.9,84.3,5.4,2.2,280.0,283.7,5.8,2.5,NaN, NaN,14.3,105.9,99.3,1105835351,1105835351,1,0.9,001751,001751,195.6,34.271727,-120.020465,-0.83,NaN,NaN,15.935, NaN,NaN,NaN, NaN, NaN
20050116,002941,1040759,34.271583,-120.020427,25.0,15.921,32.823,41.380,697.32,0.0,5.805,0.178,15.526, NaN,24.092,   NaN,15.11,1023.09,81.01,15.54,84.9,70.6,5.4,2.0,280.2,270.4,5.7,2.2,NaN, NaN,14.1,99.3,102.1,1105835381,1105835381,1,0.6,001781,001781,192.6,34.271725,-120.020358,-0.66,NaN,NaN,15.925, NaN,NaN,NaN, NaN, NaN
20050116,003011,1040790,34.271553,-120.020298,25.0,15.907,32.829,41.372,718.36,0.0,5.842,0.074,15.528, NaN,24.099,   NaN,15.14,1023.07,81.10,15.54,88.0,62.6,5.4,1.9,281.6,262.0,5.8,2.1,NaN, NaN,14.3,102.2,111.6,1105835412,1105835412,1,0.6,001811,001812,194.9,34.271698,-120.020225,-0.75,NaN,NaN,15.911, NaN,NaN,NaN, NaN, NaN
20050116,003041,1040820,34.271510,-120.020192,25.0,15.895,32.829,41.362,750.58,0.0,5.861,0.107,15.529, NaN,24.102,   NaN,15.17,1023.08,81.31,15.57,86.8,70.1,5.4,2.0,282.3,266.6,5.7,2.2,NaN, NaN,14.3,111.1,124.6,1105835441,1105835441,1,0.8,001841,001841,198.6,34.271647,-120.020112,-0.65,NaN,NaN,15.899, NaN,NaN,NaN, NaN, NaN
20050116,003111,1040850,34.271447,-120.020102,25.1,15.879,32.830,41.349,751.90,0.0,5.767,0.135,15.523, NaN,24.106,   NaN,15.18,1023.09,81.52,15.61,83.3,77.2,5.1,1.8,283.5,279.5,5.5,2.1,NaN, NaN,14.2,133.8,138.3,1105835471,1105835471,1,0.9,001871,001871,205.1,34.271572,-120.020008,-0.72,NaN,NaN,15.883, NaN,NaN,NaN, NaN, NaN
20050116,003141,1040879,34.271350,-120.020040,25.0,15.855,32.836,41.332,737.97,0.0,5.786,0.491,15.512, NaN,24.116,   NaN,15.20,1023.11,82.14,15.63,76.7,73.1,4.9,2.1,284.6,286.4,5.3,2.4,NaN, NaN,13.7,144.9,178.8,1105835502,1105835502,1,0.7,001901,001902,214.7,34.271455,-120.019927,-0.59,NaN,NaN,15.859, NaN,NaN,NaN, NaN, NaN
20050116,003211,1040909,34.271252,-120.020028,25.1,15.852,32.827,41.319,714.38,0.0,5.918,0.320,15.498, NaN,24.110,   NaN,15.22,1023.09,82.69,15.68,65.7,64.5,5.2,3.0,282.9,285.6,5.5,3.3,NaN, NaN,14.0,153.5,171.1,1105835531,1105835531,1,0.8,001931,001931,220.4,34.271352,-120.019905,-0.55,NaN,NaN,15.856, NaN,NaN,NaN, NaN, NaN
20050116,003242,1040940,34.271152,-120.020028,24.9,15.852,32.820,41.311,695.21,0.0,5.767,0.275,15.491, NaN,24.104,   NaN,15.12,1023.06,82.93,15.62,59.0,65.9,6.0,3.8,282.7,291.0,6.2,4.1,NaN, NaN,12.3,162.5,194.4,1105835562,1105835562,1,0.7,001962,001962,222.6,34.271237,-120.019912,-0.50,NaN,NaN,15.856, NaN,NaN,NaN, NaN, NaN
20050116,003312,1040970,34.271050,-120.020050,25.2,15.852,32.819,41.310,692.12,0.0,5.842,0.174,15.492, NaN,24.103,   NaN,15.07,1023.10,83.47,15.58,58.1,64.7,6.2,4.1,284.3,292.4,6.5,4.4,NaN, NaN,11.7,163.3,177.1,1105835592,1105835592,1,1.0,001991,001992,223.4,34.271127,-120.019930,-0.43,NaN,NaN,15.856, NaN,NaN,NaN, NaN, NaN
20050116,003342,1041000,34.270947,-120.020103,25.0,15.863,32.814,41.315,685.19,0.0,5.767,0.288,15.495, NaN,24.098,   NaN,15.08,1023.07,84.01,15.58,58.2,65.8,5.9,3.8,285.6,294.8,6.1,4.1,NaN, NaN,12.1,269.7,228.0,1105835622,1105835622,1,0.8,002022,002022,223.2,34.271027,-120.019973,-0.38,NaN,NaN,15.867, NaN,NaN,NaN, NaN, NaN
20050116,003412,1041031,34.270827,-120.020140,24.9,15.832,32.837,41.312,677.43,0.0,5.824,0.111,15.498, NaN,24.122,   NaN,15.06,1023.09,84.26,15.57,60.6,66.1,5.8,4.0,287.9,295.1,6.0,4.2,NaN, NaN,11.8,168.4,197.8,1105835652,1105835652,1,0.9,002052,002052,221.2,34.270913,-120.020020,-0.45,NaN,NaN,15.836, NaN,NaN,NaN, NaN, NaN
20050116,003441,1041059,34.270715,-120.020178,25.0,15.827,32.824,41.293,640.76,0.0,5.899,0.178,15.495, NaN,24.113,   NaN,15.03,1023.05,84.60,15.54,60.5,64.0,6.0,4.3,285.9,291.1,6.2,4.5,NaN, NaN,12.0,171.8,183.2,1105835682,1105835681,1,0.9,002081,002081,217.6,34.270810,-120.020063,-0.38,NaN,NaN,15.831, NaN,NaN,NaN, NaN, NaN
20050116,003512,1041091,34.270607,-120.020190,25.0,15.832,32.818,41.291,562.82,0.0,5.880,0.043,15.489, NaN,24.108,   NaN,14.94,1023.09,84.69,15.44,62.5,67.6,6.1,4.1,283.2,290.0,6.3,4.3,NaN, NaN,11.4,139.7,170.7,1105835712,1105835712,1,0.8,002112,002112,211.4,34.270708,-120.020085,-0.36,NaN,NaN,15.836, NaN,NaN,NaN, NaN, NaN
20050116,003541,1041120,34.270520,-120.020185,24.9,15.810,32.832,41.285,489.70,0.0,5.824,-0.054,15.481, NaN,24.123,   NaN,14.95,1023.10,85.17,15.41,70.1,71.4,5.4,3.5,285.2,288.5,5.7,3.8,NaN, NaN,11.8,131.4,216.2,1105835742,1105835741,1,0.4,002141,002141,208.2,34.270622,-120.020082,-0.47,NaN,NaN,15.814, NaN,NaN,NaN, NaN, NaN
20050116,003612,1041150,34.270445,-120.020140,25.0,15.782,32.842,41.271,440.62,0.0,5.786,-0.061,15.472, NaN,24.138,   NaN,14.93,1023.07,85.18,15.40,73.3,73.3,5.1,2.8,284.1,285.9,5.4,3.1,NaN, NaN,11.9,140.7,176.7,1105835772,1105835772,1,0.3,002172,002172,206.9,34.270547,-120.020037,-0.53,NaN,NaN,15.786, NaN,NaN,NaN, NaN, NaN